Location: Detroit
(42.3310°N, 83.0460°W)
Time: 08:21:10
(UTC-04:00)

Explorer 11/Cluster Stage 4 - Pass Details

Date: 08 February 2023
Orbit: 466 x 1241 km, 28.8° (Epoch: 02 April)

Event Time Altitude Azimuth Distance (km) Brightness Sun altitude
Exits shadow 03:52:24 18° 134° (SE) 2,470 9.2 -41.8°
Drops below altitude 10° 03:55:07 10° 116° (ESE) 3,094 10.0 -41.3°
Sets 03:58:46 0° 104° (ESE) 4,127 10.9 -40.6°
